Albany, NY

1:50 PM EDT on May 27, 2017 (GMT -0400)
Albany International

Weather History for KALB - September, 2013

Change the Weather History Date:

Saturday, September 21, 2013

  Actual Average Record
Temperature  
Mean Temperature 66 °F 60 °F  
Max Temperature 74 °F 70 °F 95 °F (1895)
Min Temperature 58 °F 50 °F 29 °F (1973)
Degree Days  
Heating Degree Days 0 6  
Month to date heating degree days 89 70  
Since 1 July heating degree days 95 93  
Cooling Degree Days 1 1  
Month to date cooling degree days 65 45  
Year to date cooling degree days 763 588  
Growing Degree Days 15 (Base 50)    
Moisture  
Dew Point 58 °F    
Average Humidity 75    
Maximum Humidity 93    
Minimum Humidity 57    
Precipitation  
Precipitation 0.56 in 0.13 in 3.25 in (1938)
Month to date precipitation 4.68 2.23  
Year to date precipitation 36.19 28.38  
Sea Level Pressure  
Sea Level Pressure 29.79 in    
Wind  
Wind Speed 13 mph (South)    
Max Wind Speed 25 mph    
Max Gust Speed 36 mph    
Visibility 10 miles    
Events Rain    
T = Trace of Precipitation, MM = Missing Value Source: NWS Daily Summary

Daily Weather History Graph

Daily Weather History Graph

Search for Another Location

Airport or City:

Trip Planner

Search our weather history database for the weather conditions in past years. The results will help you decide how hot, cold, wet, or windy it might be!

Date:

Astronomy

Sep. 21, 2013 Rise Set
Actual Time 6:41 AM EDT 6:53 PM EDT
Civil Twilight 6:13 AM EDT 7:22 PM EDT
Nautical Twilight 5:40 AM EDT 7:55 PM EDT
Astronomical Twilight 5:06 AM EDT 8:28 PM EDT
Moon 7:58 PM EDT (9/21) 9:01 AM EDT (9/21)
Length of Visible Light 13h 08m
Length of Day
12h 12m
Waning Gibbous, 94% of the Moon is Illuminated
Sep 21
Waning Gibbous
Sep 26
Last Quarter
Oct 4
New
Oct 11
First Quarter
Oct 18
Full

Hourly Weather History & Observations

Time (EDT) Temp. Dew Point Humidity Pressure Visibility Wind Dir Wind Speed Gust Speed Precip Events Conditions
12:51 AM 61.0 °F 54.0 °F 78% 29.97 in 10.0 mi South 8.1 mph - N/A   Scattered Clouds
1:51 AM 60.1 °F 54.0 °F 80% 29.97 in 10.0 mi South 8.1 mph - N/A   Mostly Cloudy
2:51 AM 59.0 °F 54.0 °F 83% 29.95 in 10.0 mi South 6.9 mph - N/A   Mostly Cloudy
3:51 AM 59.0 °F 54.0 °F 83% 29.93 in 10.0 mi South 8.1 mph - N/A   Mostly Cloudy
4:51 AM 57.9 °F 54.0 °F 87% 29.93 in 10.0 mi SSW 6.9 mph - N/A   Mostly Cloudy
5:13 AM 59.0 °F 55.4 °F 88% 29.92 in 10.0 mi South 9.2 mph - N/A   Mostly Cloudy
5:51 AM 57.9 °F 55.0 °F 90% 29.91 in 10.0 mi South 10.4 mph - N/A   Mostly Cloudy
6:51 AM 59.0 °F 55.0 °F 87% 29.92 in 10.0 mi South 9.2 mph - N/A   Overcast
7:51 AM 60.1 °F 55.0 °F 83% 29.91 in 10.0 mi South 13.8 mph - N/A   Overcast
8:51 AM 61.0 °F 55.9 °F 83% 29.90 in 10.0 mi South 13.8 mph 21.9 mph N/A   Overcast
9:11 AM 62.6 °F 55.4 °F 77% 29.89 in 10.0 mi South 13.8 mph 20.7 mph N/A   Overcast
9:51 AM 64.0 °F 55.9 °F 75% 29.87 in 10.0 mi South 18.4 mph 24.2 mph N/A   Mostly Cloudy
10:51 AM 68.0 °F 55.9 °F 65% 29.86 in 10.0 mi SSE 15.0 mph 24.2 mph N/A   Mostly Cloudy
11:51 AM 70.0 °F 54.0 °F 57% 29.83 in 10.0 mi South 19.6 mph 35.7 mph N/A   Mostly Cloudy
12:51 PM 72.0 °F 55.0 °F 55% 29.81 in 10.0 mi South 17.3 mph 28.8 mph N/A   Mostly Cloudy
1:51 PM 73.0 °F 57.0 °F 57% 29.78 in 10.0 mi South 19.6 mph 26.5 mph N/A   Mostly Cloudy
2:51 PM 73.9 °F 59.0 °F 59% 29.75 in 10.0 mi South 13.8 mph 26.5 mph N/A   Mostly Cloudy
3:51 PM 73.0 °F 60.1 °F 64% 29.72 in 10.0 mi South 15.0 mph 25.3 mph N/A   Overcast
4:51 PM 72.0 °F 61.0 °F 68% 29.70 in 10.0 mi South 11.5 mph 18.4 mph N/A   Overcast
5:51 PM 72.0 °F 62.1 °F 71% 29.68 in 10.0 mi South 11.5 mph 20.7 mph N/A   Overcast
6:51 PM 72.0 °F 61.0 °F 68% 29.66 in 10.0 mi South 13.8 mph 19.6 mph N/A   Overcast
7:51 PM 71.1 °F 61.0 °F 70% 29.65 in 10.0 mi SSE 11.5 mph 21.9 mph N/A   Overcast
8:51 PM 70.0 °F 61.0 °F 73% 29.65 in 10.0 mi South 15.0 mph 24.2 mph 0.00 in Rain Light Rain
9:51 PM 69.1 °F 62.1 °F 78% 29.64 in 10.0 mi South 19.6 mph 28.8 mph 0.00 in Rain Light Rain
10:51 PM 68.0 °F 63.0 °F 84% 29.64 in 10.0 mi SSE 9.2 mph - 0.00 in Rain Light Rain
10:59 PM 66.2 °F 62.6 °F 88% 29.63 in 10.0 mi SSE 10.4 mph - 0.00 in Rain Light Rain
11:36 PM 66.2 °F 64.4 °F 94% 29.63 in 3.0 mi WSW 16.1 mph - 0.07 in Rain Heavy Rain
11:51 PM 64.0 °F 61.0 °F 90% 29.64 in 5.0 mi West 17.3 mph 24.2 mph 0.45 in Rain Rain